Regional Weather Roundup
Issued by NWS New Orleans/Baton Rouge, LA

Home | Current Version | Previous Version | Text Only | Print | Product List | Glossary On
Versions: 1 2 3 4 5 6 7 8 9 10 11 12 13 14 15 16 17 18 19 20 21 22 23 24 25 26 27 28 29 30 31 32 33 34 35 36 37 38 39 40 41 42 43 44 45 46 47 48 49 50
426
ASUS44 KLIX 282301
RWRLIX
NEW ORLEANS REGIONAL WEATHER ROUNDUP
NATIONAL WEATHER SERVICE NEW ORLEANS LA
500 PM CST SAT FEB 28 2015

NOTE: "FAIR" INDICATES FEW OR NO CLOUDS BELOW 12,000 FEET WITH NO
      SIGNIFICANT WEATHER AND/OR OBSTRUCTIONS TO VISIBILITY.
      SKY/WX - SKY CONDITION AND SIGNIFICANT WEATHER.
      TMP - AIR TEMPERATURE.     DP    - DEWPOINT TEMPERATURE.
      RH  - RELATIVE HUMIDITY.   PRES  - PRESSURE.
      HI  - HEAT INDEX.          WCI   - WIND CHILL INDEX.

*  THESE STATIONS ARE NOT NWS OR FAA STATIONS AND ARE NOT UNDER
   NWS QUALITY CONTROL.

LAZ038-040-048-061>063-065>067-069-010000-
SOUTHEAST LOUISIANA

CITY           SKY/WX    TMP DP  RH WIND       PRES   REMARKS
N.O. AUDUBON     N/A     59  50  72 MISG        N/A
N.O. INTL ARPT PTSUNNY   59  47  64 E12       30.31R
N.O. LAKEFRONT PTSUNNY   59  47  64 E14       30.33R
SLIDELL        MOSUNNY   62  48  60 E7        30.32R
BATON ROUGE    CLOUDY    65  41  41 SE14      30.29S
BOOTHVILLE     CLOUDY    57  53  86 NE12      30.30S
BELLE CHASSE   PTSUNNY   61  47  59 E9        30.31R
BOGALUSA*        N/A     70  33  25 SE5       30.32R
GALLIANO*      MOCLDY    60  51  70 NE6       30.31R
NEW ROADS*     NOT AVBL
GONZALES*      NOT AVBL
HAMMOND*       NOT AVBL
HOUMA*         SUNNY     61  52  72 NE13      30.29R
PORT FOURCHON* MOCLDY    57  54  88 NE15G24   30.32R

$$

MSZ070-080>082-010000-
SOUTHERN MISSISSIPPI

CITY           SKY/WX    TMP DP  RH WIND       PRES   REMARKS
MCCOMB         PTSUNNY   66  33  29 E6        30.29F
GULFPORT       SUNNY     57  49  74 SE14      30.33R
BILOXI         NOT AVBL
PASCAGOULA     SUNNY     58  49  72 SE12      30.33R
STENNIS ARPT*  SUNNY     61  45  55 SE6       30.33R

$$

COASTAL OBSERVATIONS
LAKE AND NEARSHORE STATIONS

STATION/POSITION TIME  TEMP    WIND        PRES    WAVE
                       AIR SEA DIR/SP/G            HT/PER
                 (UTC) (F)     (DEG/KT/KT) (MB)    (FT/S)
PASCAGOULA       2200   58     110/  8/ 15 1026.5
WAVELAND YACHT   2200   56 50  140/  8/ 10 1026.5
GRAND ISLE       2200   57 54   70/ 15/ 23 1025.7
SOUTHWEST PASS   2200   62 48   50/ 16/ 18 1025.4
NEW CANAL        2200   59      90/  4/ 10 1026.9
SHELL BEACH      2200   55 53   70/ 10/ 14 1026.5

OFFSHORE STATIONS

STATION/POSITION TIME  TEMP    WIND        PRES    WAVE
                       AIR SEA DIR/SP/G            HT/PER
                 (UTC) (F)     (DEG/KT/KT) (MB)    (FT/S)
64 S DAUPHIN ISL 2155   62 70   70/ 16/ 19 1026.1    5/ 7

$$




USA.gov is the U.S. government's official web portal to all federal, state and local government web resources and services.